www.pogodaiklimat.ru

Погода и климат >> Архив погоды >> Россия >> Чувашия >> Канаш


ПОГОДА в Канаше

  • Прогноз погоды в Канаше
  • Монитор погоды в Канаше

АРХИВ ПОГОДЫ в Канаше

Время (UTC), дата Ветер
(напр.,м/с)
 
Видим.   Явления Облачность Т
(С)
Тd
(С)
f
(%)
Тe
(С)
Тes
(С)
Комфортность P
(гПа)
Po
(гПа)
Тmin
(С)
Tmax
(С)
R
(мм)
R24
(мм)
S
(см)
06 17.02 Ю 6-8
{11}
20 км позёмок 10/6 600 м
[Sc Ac trans Ci fib]
-3.9 -7.2 78 -11 -11 998.4 975.5
09 17.02 ЮЗ 6-9
{11}
20 км позёмок 10/10 300 м
[St]
-2.5 -5.1 82 -10 -10 993.9 971.3
12 17.02 ЮЗ 5-8
{10}
20 км {морось, метель} 10/10 300 м
[St]
-2.2 -3.7 89 -9 -9 990.4 967.8
15 17.02 З 5-7
{8}
10 км слаб. снег 10/10 300 м
[Frnb]
-1.3 -3.0 88 -8 -8 988.0 965.6 -0.9 1
18 17.02 З 3-5
{7}
10 км {снег} 9/9 600 м
[Sc]
-2.4 -3.6 91 -8 -8 987.4 964.9
21 17.02 З 6-9
{10}
10 км позёмок {снег} 10/10 600 м
[Sc]
-1.3 -3.6 84 -8 -8 987.0 964.6
00 18.02 СЗ 6-8
{10}
10 км слаб. снег {метель} 10/10 300 м
[Frnb]
-1.5 -3.2 88 -9 -9 987.0 964.6
03 18.02 СЗ 7-10
{11}
10 км слаб. снег 10/10 300 м
[Frnb]
-1.3 -3.0 88 -9 -9 988.0 965.6 -2.5 0.2 44
06 18.02 СЗ 10-14
{14}
10 км слаб. снег 10/10 300 м
[Frnb]
-1.7 -3.4 88 -10 -10 990.8 968.2
09 18.02 С 10-15
{16}
20 км сильный позёмок 10/10 600 м
[Sc]
-3.4 -7.4 74 -12 -12 995.0 972.3
12 18.02 С 9-15
{17}
20 км сильный позёмок 10/10 600 м
[Sc]
-4.6 -9.4 69 -13 -13 999.3 976.4
15 18.02 С 9-15
{17}
10 км сильный позёмок 10/10 600 м
[Sc]
-6.6 -10.3 75 -16 -16 1003.6 980.4 -1.2 0.6
18 18.02 С 8-15
{17}
10 км сильный позёмок 10/10 600 м
[Sc]
-8.1 -13.8 63 -17 -17 1007.4 983.9
21 18.02 С 7-12
{17}
10 км позёмок 10/10 600 м
[Sc]
-9.5 -16.5 57 -18 -18 1009.9 986.3
00 19.02 С 6-10
{12}
10 км позёмок 3/3 600 м
[Sc]
-11.6 -17.8 60 -20 -20 1012.9 989.0
03 19.02 С 6-10
{11}
10 км позёмок ясно -13.2 -18.4 65 -22 -22 1014.9 990.8 -13.2 0.2 40
06 19.02 СЗ 4-6
{8}
20 км позёмок ясно -13.6 -18.8 65 -21 -20 1017.1 992.8 -14.4
09 19.02 З 4-5
{7}
20 км {метель} 8/0
[Ci fib]
-11.3 -17.5 60 -18 -16 1017.2 993.2 290
12 19.02 ЮЗ 2-3
{6}
20 км {метель} 10/3 600 м
[Sc As op]
-9.4 -20.9 39 -14 -13 1014.7 991.0
15 19.02 Ю 5-9
{9}
10 км позёмок 10/10 600 м
[Sc]
-8.4 -19.7 40 -16 -16 1011.6 988.0 -8.3
18 19.02 ЮЗ 6-8
{10}
10 км позёмок 10/10 600 м
[Sc]
-7.0 -13.8 58 -15 -15 1010.3 986.9
21 19.02 З 3-5
{9}
10 км {метель} 10/10 600 м
[Sc]
-5.8 -11.5 64 -11 -11 1009.7 986.4
00 20.02 ЮЗ 4-5
{7}
10 км {метель} 10/10 600 м
[Sc]
-4.5 -9.7 67 -11 -11 1009.3 986.1
03 20.02 Ю 3-5
{6}
10 км 10/10 600 м
[Sc]
-4.0 -9.8 64 -9 -9 1008.1 984.9 -8.3 40
06 20.02 Ю 5-8
{8}
20 км позёмок 9/0
[Ac trans Ci fib]
-5.0 -9.9 68 -12 -11 1006.7 983.4
09 20.02 Ю 6-8
{11}
20 км позёмок 10/10 600 м
[Sc]
-3.9 -10.0 63 -11 -11 1005.2 982.2
12 20.02 ЮЗ 6-10
{11}
20 км позёмок 10/10 600 м
[Sc]
-2.7 -8.4 65 -10 -10 1003.6 980.7
15 20.02 ЮЗ 5-8
{10}
10 км позёмок 10/10 600 м
[Sc]
-2.1 -6.0 75 -8 -8 1003.1 980.2 -1.9
18 20.02 ЮЗ 6-9
{10}
10 км позёмок 10/10 600 м
[Sc]
-1.8 -5.6 75 -9 -9 1002.8 980.0
21 20.02 ЮЗ 6-9
{10}
10 км слаб. снег {метель} 10/0
[As op]
-2.6 -4.9 84 -10 -10 1002.6 979.7
00 21.02 Ю 6-10
{10}
2000 м снег {метель} 10/8 300 м
[Frnb As op]
-2.2 -4.0 87 -9 -9 1001.4 978.5
03 21.02 Ю 5-8
{10}
10 км позёмок {снег} 10/10 600 м
[Sc]
-2.3 -4.5 85 -9 -9 1000.9 978.0 -2.7 0.6 41
06 21.02 Ю 5-8
{9}
20 км позёмок {снег} 10/10 600 м
[Sc]
-1.4 -3.7 84 -8 -8 999.9 977.2
09 21.02 Ю 5-7
{9}
20 км позёмок {снег} 10/10 600 м
[Sc]
-0.4 -2.8 84 -7 -7 999.5 976.9
12 21.02 Ю 7-7
{9}
20 км слаб. снег {метель} 10/10 300 м
[Frnb]
+0.1 -2.6 82 -7 -7 998.9 976.4
15 21.02 ЮВ 4-6
{8}
10 км слаб. снег 10/10 200 м
[Frnb]
-0.4 -1.6 92 -6 -6 999.0 976.4 +0.7 0.3
18 21.02 ЮВ 5-7
{8}
10 км слаб. снег 10/10 300 м
[Frnb]
-0.6 -1.8 92 -7 -7 998.9 976.3
21 21.02 ЮВ 4-7
{9}
10 км слаб. снег 10/10 600 м
[Sc]
-1.4 -2.8 90 -7 -7 998.4 975.7
00 22.02 ЮВ 4-7
{8}
10 км слаб. снег 10/10 300 м
[Frnb Ns]
-2.3 -3.5 91 -8 -8 997.6 974.8
03 22.02 В 3-5
{7}
2000 м снег 10/10 300 м
[Frnb Ns]
-2.7 -3.7 93 -8 -8 997.3 974.5 -2.7 2 43
06 22.02 З 2-3
{6}
10 км слаб. снег 10/10 300 м
[Frnb]
-3.5 -4.9 90 -8 -8 998.2 975.4 -3.6
09 22.02 З 3-4
{5}
10 км слаб. снег 10/10 300 м
[Frnb]
-3.4 -5.1 88 -9 -9 999.7 976.9
12 22.02 ЮЗ 3-5
{7}
20 км в посл. час снег 9/9 600 м
[Sc]
-4.1 -6.0 87 -10 -9 1002.5 979.5
15 22.02 З 1-2
{3}
10 км 10/10 600 м
[Sc]
-6.9 -8.5 88 -9 -9 1007.0 983.6 -2.6 3
18 22.02 СЗ 5-8
{10}
10 км слаб. снег 10/10 300 м
[Frnb]
-7.4 -9.5 85 -15 -15 1011.0 987.5
21 22.02 СЗ 5-8
{9}
2000 м снег 10/8 300 м
[Frnb As op]
-9.5 -11.6 85 -17 -17 1014.8 991.1
00 23.02 СЗ 6-9
{9}
2000 м снег 10/10 300 м
[Frnb]
-10.6 -13.4 80 -19 -19 1017.7 993.8
03 23.02 СЗ 6-8
{8}
10 км слаб. снег 10/0
[As op]
-11.6 -14.4 80 -20 -20 1020.2 996.2 -11.8 2 46
06 23.02 СЗ 6-8
{9}
20 км позёмок {снег} 10/10 600 м
[Sc]
-12.0 -14.7 80 -21 -21 1022.6 998.4
09 23.02 СЗ 7-9
{11}
20 км позёмок {снег} 9/6 600 м
[Sc Ci fib]
-12.4 -15.1 80 -22 -22 1024.4 1000.2
12 23.02 З 5-7
{9}
20 км позёмок {снег} 3/0
[Ac trans]
-12.5 -16.8 70 -21 -20 1025.4 1001.2
15 23.02 З 4-4
{7}
10 км {метель} 3/0
[Ci fib]
-15.8 -19.2 75 -24 -24 1026.2 1001.8 -11.7 0.3
18 23.02 З 3-4
{5}
10 км {метель} ясно -15.3 -18.0 80 -22 -22 1026.9 1002.4
21 23.02 ЮЗ 3-4
{5}
10 км ясно -16.0 -19.4 75 -23 -23 1026.7 1002.1
00 24.02 ЮЗ 3-4
{4}
10 км ясно -14.9 -20.0 65 -21 -21 1026.0 1001.5
03 24.02 ЮЗ 4-5
{6}
10 км 6/0
[Ci fib]
-12.7 -17.9 65 -20 -20 1024.8 1000.5 -16.1 46

 

Местоположение метеостанции Канаш (Чувашия, Россия): широта 55.52 долгота 47.47 высота над уровнем моря 183 м.

В архиве по умолчанию представлена погода в Канаше за последнюю неделю. Архивные данные за месяц целиком и за предыдущие месяцы, начиная с января 2011 года, Вы можете получить, выбрав интересующий диапазон дат из раскрывающегося списка и нажав кнопку "Ввод!".


*Определитесь, кто Вы:
робот инопланетянин человек

Внимание! Время в таблицах - всемирное. Для получения местного времени необходимо прибавить поправку, которая равна 3 ч.

Смотрите также архив погоды в соседних городах и на ближайших метеорологических станциях:

Погода в Больших Кайбицах (Татарстан, Россия) (47 км)
Погода в Батырево (Чувашия, Россия) (51 км)
Погода в Чебоксарах (Чувашия, Россия) (63 км)
Погода в Вязовых (Татарстан, Россия) (74 км)
Погода в Порецком (Чувашия, Россия) (81 км)
Погода в Дрожжаном (Татарстан, Россия) (89 км)
Погода в Алатыре (Чувашия, Россия) (96 км)
Погода в Тетюшах (Татарстан, Россия) (105 км)
Погода в Козьмодемьянске (Марий-Эл, Россия) (106 км)
Погода в Казани (Татарстан, Россия) (111 км)

Пояснения к столбцам:

Ветер - указаны скорость ветра в м/с - средняя за 10 мин, порывы в срок и между сроками (в фигурных скобках) и направление, откуда дует ветер: С - северный, СВ - северо-восточный, В - восточный, ЮВ - юго-восточный, Ю - южный, ЮЗ - юго-западный, З - западный, СЗ - северо-западный.
Видимость - горизонтальная дальность видимости в метрах или километрах. При видимости от 1 до 10 км при отсутствии осадков обычно наблюдается дымка, при ухудшении видимости до 1 км и менее - туман. В сухую погоду видимость может ухудшаться дымом, пылью или мглою.
Явления - указаны атмосферные явления, наблюдавшиеся в срок или в последний час перед сроком; фигурными скобками обозначены явления, наблюдавшиеся между сроками (за 1-3 часа до срока); квадратными скобками обозначены град или гололедные отложения с указанием их диаметра в мм.
Облачность - указаны через наклонную черту общая и нижняя облачность в баллах и высота нижней границы облаков в метрах; квадратными скобками обозначены формы облаков: Ci - перистые, Cs - перисто-слоистые, Cc - перисто-кучевые, Ac - высококучевые, As - высокослоистые, Sc - слоисто-кучевые, Ns - слоисто-дождевые, Cu - кучевые, Cb - кучево-дождевые. Подробнее классификацию облаков см. в Атласе облаков (PDF).
T - Температура воздуха - температура, измеренная на высоте 2 м над землей.
Td - Температура точки росы - температура, при понижении до которой содержащийся в воздухе водяной пар достигнет насыщения.
f - Относительная влажность воздуха - влажноcть воздуха, измеренная на высоте 2 м над землей.
Te - Эффективная температура - температура, которую ощущает одетый по сезону человек в тени. Характеристика душности погоды. При расчете учитывается влияние влажности воздуха и скорости ветра на теплоощущения человека.
Tes - Эффективная температура на солнце - температура, которую ощущает человек, с поправкой на солнечный нагрев. Характеристика знойности погоды. Зависит от высоты солнца над горизонтом, облачности и скорости ветра. Ночью, в пасмурную погоду, а также при ветре 12 м/с и более поправка равна нулю.
P - Атмосферное давление - приведенное к уровню моря атмосферное давление.
Po - Атмосферное давление - измеренное на уровне метеостанции атмосферное давление.
Tmin - Минимальная температура - минимум температуры воздуха на высоте 2 м над землей.
Tmax - Максимальная температура - максимум температуры воздуха на высоте 2 м над землей.
R - Количество осадков - Количество выпавших осадков за период времени, мм. При наведении курсора мыши на число - период времени, за который выпало указанное количество осадков.
R24 - Количество осадков - Количество выпавших осадков за 24 часа, мм.
S - Снежный покров - Высота снежного покрова, см. При наведении курсора мыши на число - состояние снежного покрова и степень покрытия местности в баллах.